This is the latest recevied weather packets stored in our database for station/object KJ6BBX. If no packets are shown the sender has not sent any weather packets the latest 10 day(s).
| Time | Temp. | Humidity | Pressure | Rain* | Wind** | Luminosity | Snow |
|---|---|---|---|---|---|---|---|
| 1777114214 | 13.89° C | 89% | 1003.6 hPa | 0 mm | - | 0 W/m² | - |
| 1777113314 | 13.89° C | 90% | 1003.7 hPa | 0 mm | - | 0 W/m² | - |
| 1777112414 | 13.33° C | 91% | 1003.5 hPa | 0 mm | - | 0 W/m² | - |
| 1777111514 | 12.78° C | 92% | 1003.4 hPa | 0 mm | - | 0 W/m² | - |
| 1777110614 | 12.78° C | 91% | 1003.4 hPa | 0 mm | - | 0 W/m² | - |
| 1777109714 | 13.33° C | 91% | 1003.7 hPa | 0 mm | - | 0 W/m² | - |
| 1777108814 | 13.33° C | 91% | 1003.5 hPa | 0 mm | - | 0 W/m² | - |
| 1777107913 | 13.89° C | 90% | 1003.8 hPa | 0 mm | - | 0 W/m² | - |
| 1777107014 | 13.89° C | 88% | 1004.1 hPa | 0 mm | - | 0 W/m² | - |
| 1777106114 | 14.44° C | 87% | 1003.8 hPa | 0 mm | - | 0 W/m² | - |
| 1777105213 | 14.44° C | 87% | 1004 hPa | 0 mm | - | 0 W/m² | - |
| 1777104314 | 15° C | 86% | 1004.3 hPa | 0 mm | - | 0 W/m² | - |
| 1777103414 | 15° C | 86% | 1004.2 hPa | 0 mm | - | 0 W/m² | - |
| 1777102514 | 15° C | 85% | 1004.1 hPa | 0 mm | - | 0 W/m² | - |
| 1777101614 | 15° C | 86% | 1004.1 hPa | 0 mm | - | 0 W/m² | - |
| 1777100714 | 15.56° C | 85% | 1004.3 hPa | 0 mm | - | 0 W/m² | - |
| 1777099814 | 15.56° C | 85% | 1004.1 hPa | 0 mm | - | 0 W/m² | - |
| 1777098914 | 15.56° C | 84% | 1004.1 hPa | 0 mm | - | 0 W/m² | - |
| 1777098014 | 15.56° C | 84% | 1004.5 hPa | 0 mm | - | 0 W/m² | - |
| 1777097114 | 15.56° C | 84% | 1004.5 hPa | 0 mm | - | 0 W/m² | - |
| 1777096214 | 16.11° C | 83% | 1004.7 hPa | 0 mm | - | 0 W/m² | - |
| 1777095314 | 16.11° C | 82% | 1004.6 hPa | 0 mm | - | 0 W/m² | - |
| 1777094414 | 16.67° C | 81% | 1004.6 hPa | 0 mm | - | 0 W/m² | - |
| 1777093514 | 16.67° C | 82% | 1004.4 hPa | 0 mm | - | 0 W/m² | - |
| 1777092614 | 16.67° C | 82% | 1004.5 hPa | 0 mm | - | 0 W/m² | - |
* Rain since midnight (hover to see other rain measurements)
** Current wind speed in m/s (hover to see current wind gust speed)